Theta_e
318 317 322 321 322 323 325 331 333 336 334 326 323 328 325 323 332 333 333 337 339 335 333 336 338 339 339 343 343 341 340 343 346 343 343 340 334 335 335 333 332 332 336 338 338 340 338 338 338 336 334 333 334 331 330 333 334 334 334 334 334 334 334 335 335 335 334 332 332 333 334 332 331 330 331 331 331 332 331 330 330 329 329 329 328 326 327 328 329 329 329 328 328 327 328 329 329
318 319 322 320 323 321 325 335 335 334 334 323 320 325 323 326 332 334 336 336 339 335 335 338 338 339 339 340 341 341 339 338 337 336 336 333 334 335 333 333 330 332 337 337 338 339 338 338 336 334 332 332 334 332 331 332 332 333 333 333 333 333 333 334 334 334 332 332 333 334 334 332 330 330 330 331 332 332 331 331 331 330 329 328 328 327 327 328 328 328 328 327 327 326 327 329 329
318 320 321 321 322 323 333 334 329 331 329 322 324 328 327 332 336 337 336 336 338 336 337 339 342 341 340 344 343 343 340 335 335 333 332 333 334 334 333 332 329 333 337 337 338 338 338 338 337 334 330 330 332 332 332 331 332 332 332 332 332 332 332 332 333 333 332 332 334 334 334 334 333 330 329 329 330 330 330 332 332 331 330 328 328 328 327 328 328 328 328 327 326 326 327 328 328
319 322 321 322 325 329 342 336 333 334 325 324 326 330 336 338 339 337 334 335 337 337 337 339 345 338 341 352 342 341 341 336 335 333 333 333 334 334 333 331 330 334 336 336 338 338 338 338 338 334 329 329 330 331 331 331 332 332 331 331 332 332 331 332 332 332 331 332 334 334 334 335 333 330 330 329 327 329 330 330 330 329 329 328 328 327 327 327 328 328 327 327 326 325 325 327 328
319 323 320 322 329 329 334 330 332 333 323 327 329 334 344 340 339 338 333 335 335 334 335 340 347 338 339 345 338 343 342 337 334 332 334 333 334 334 333 332 331 334 336 336 337 338 337 338 338 332 331 332 331 331 332 332 332 331 331 331 332 331 331 331 331 332 331 332 334 335 335 334 331 329 331 331 328 329 331 329 327 327 328 328 328 327 328 328 327 327 327 326 325 324 324 326 327
320 322 322 322 323 322 330 324 321 328 326 334 337 340 343 336 338 338 333 333 332 333 337 343 347 343 343 340 337 341 337 336 335 333 333 333 334 334 333 332 332 335 336 336 338 338 337 337 335 330 331 334 332 331 332 331 331 332 332 332 331 330 331 331 331 331 331 332 334 334 334 333 331 329 331 332 329 328 329 328 328 328 328 327 327 327 327 327 327 327 326 325 324 323 323 324 325
320 320 327 331 324 323 333 326 323 329 323 332 342 340 337 336 337 336 333 332 333 336 340 342 342 346 346 338 336 336 333 335 334 333 334 333 334 333 332 331 333 336 335 336 338 337 336 335 331 328 331 334 332 330 331 330 331 332 332 332 330 330 330 331 331 331 332 332 333 333 333 333 332 332 331 330 328 328 329 330 329 328 328 328 328 327 327 327 326 326 325 324 322 322 322 322 322
321 322 331 341 337 334 335 327 330 332 320 326 337 335 335 337 336 334 335 334 334 337 340 338 339 349 345 337 341 337 333 334 333 334 334 333 333 332 332 331 332 335 335 336 337 337 335 332 329 327 330 333 330 329 331 331 331 330 331 330 329 330 331 331 332 332 332 332 333 332 332 333 333 333 331 328 328 327 328 328 328 328 327 327 327 326 326 326 325 324 322 322 321 321 321 321 321
321 323 328 336 333 336 339 329 326 325 321 328 333 332 334 334 335 332 332 332 331 335 337 336 337 344 343 341 345 337 332 334 334 334 334 333 333 332 332 330 330 334 334 334 338 337 334 332 329 327 329 330 328 330 331 330 329 329 330 329 329 331 331 330 331 332 331 331 332 332 333 333 333 332 331 329 328 327 326 326 326 326 326 326 326 326 324 322 321 320 320 320 320 320 320 321 320
323 324 328 334 332 330 332 329 326 323 321 328 330 332 334 332 332 329 330 330 329 335 335 337 342 342 343 345 343 335 332 333 333 334 333 333 332 332 332 329 328 332 333 334 338 336 334 333 329 328 328 328 327 327 328 328 329 329 330 330 330 330 330 328 328 331 331 330 329 330 332 333 333 332 331 330 328 326 325 326 326 327 327 326 325 324 321 320 319 319 320 320 321 321 321 321 321
326 330 334 334 333 327 325 330 331 327 321 322 326 328 331 328 328 328 331 331 330 338 337 340 347 342 342 343 341 336 331 332 334 333 333 333 332 332 332 332 330 330 331 333 337 336 335 334 331 330 329 328 326 324 325 328 330 329 330 330 331 330 329 328 327 329 331 331 329 329 330 331 331 331 331 330 329 327 325 326 326 326 326 325 324 322 320 319 319 319 320 320 321 321 321 321 321
325 334 341 333 332 329 328 331 325 326 324 323 325 324 325 323 325 329 332 332 332 338 336 339 345 342 343 341 340 335 330 332 333 332 332 333 332 332 333 333 333 331 330 332 337 336 335 335 332 331 330 329 327 325 326 328 330 329 330 330 331 330 330 330 328 329 330 331 331 331 331 330 330 330 331 330 329 327 325 326 325 326 326 326 325 323 319 318 318 318 318 319 320 321 322 322 321
332 336 339 329 332 332 328 327 322 326 327 325 325 322 322 322 326 332 335 334 332 333 328 332 340 343 344 339 338 334 331 332 331 332 332 332 332 332 333 333 333 332 331 332 336 337 336 336 332 331 331 330 328 327 326 326 329 330 329 330 330 330 330 330 329 329 330 330 331 331 331 331 330 331 331 330 330 328 325 326 327 326 326 325 325 322 319 318 317 317 316 317 317 318 320 321 322
335 339 337 327 329 335 330 324 322 325 325 327 326 322 322 322 325 329 334 334 330 329 325 330 337 345 346 338 339 335 333 332 330 332 331 332 332 332 333 333 334 333 332 331 335 337 336 336 332 330 331 330 329 327 326 323 327 330 329 330 330 329 329 329 328 328 329 330 330 329 330 331 330 330 329 329 329 328 326 326 326 326 325 324 323 320 319 318 317 317 316 316 316 316 317 319 321
330 341 339 331 328 331 329 324 325 326 325 328 323 322 325 321 323 325 330 335 330 326 327 331 333 339 342 342 347 337 332 332 330 331 330 332 332 333 333 333 333 332 332 332 335 337 337 336 332 331 330 330 329 327 326 324 324 327 328 330 329 328 327 327 328 329 328 329 329 328 329 331 330 329 328 328 328 327 325 324 324 324 324 323 321 319 318 318 317 317 316 316 316 316 317 318 320
335 344 336 331 327 326 326 324 326 327 326 328 323 323 325 321 323 324 325 330 329 328 332 333 327 331 336 343 349 336 332 332 331 331 330 333 333 334 334 333 334 332 332 333 336 337 337 336 332 331 331 330 329 327 326 326 325 324 326 328 329 328 326 325 326 328 327 327 327 327 328 330 329 329 328 327 326 325 324 322 321 322 322 320 319 318 318 318 317 317 317 317 318 318 319 320 321
335 338 332 330 329 328 328 325 325 328 330 328 323 323 326 323 321 320 320 328 332 333 339 334 327 333 336 337 337 333 333 332 330 331 332 335 335 334 335 334 334 333 334 335 337 337 336 335 332 330 330 330 330 328 325 326 327 325 325 326 327 328 326 326 324 326 327 326 326 327 327 328 329 329 328 327 326 324 323 322 320 319 319 318 318 318 318 318 318 318 318 319 319 319 320 321 321
329 330 331 330 332 334 331 327 325 328 329 324 322 324 328 326 322 319 322 332 335 333 338 336 334 334 333 333 333 333 334 331 331 333 334 335 335 335 335 334 335 335 335 335 336 337 335 334 332 330 330 330 329 329 326 325 326 325 325 326 326 327 327 326 325 325 326 326 326 327 326 327 328 328 328 327 326 324 323 323 321 319 318 318 318 318 318 318 318 318 318 319 320 320 320 321 321
332 333 328 329 336 334 327 326 323 323 324 323 323 323 325 326 324 321 324 333 333 333 337 337 342 340 333 333 332 333 331 331 332 333 334 334 335 335 335 335 335 335 335 336 336 336 335 334 332 331 330 330 329 329 327 325 325 324 325 326 326 327 327 327 326 324 324 325 326 327 326 326 327 327 328 327 326 325 323 323 322 319 318 318 318 318 318 318 318 318 318 319 320 320 320 321 322
333 333 327 334 336 325 319 320 320 319 322 325 322 320 322 323 322 321 326 333 331 337 344 340 347 347 337 333 330 331 330 329 332 333 333 333 334 335 335 335 335 336 336 336 336 336 335 334 333 331 330 330 330 329 328 326 325 324 324 325 325 326 327 327 326 324 324 324 325 326 326 325 326 326 326 326 324 324 323 322 321 319 318 318 318 318 318 318 318 318 318 318 319 320 319 320 321
326 327 331 337 329 318 317 317 317 317 320 324 322 320 321 319 319 321 326 332 331 336 341 340 349 348 336 332 330 330 329 328 329 331 331 332 333 334 334 334 335 335 335 336 336 335 335 335 333 332 331 330 331 331 329 327 326 324 323 324 324 324 326 327 326 325 324 323 323 325 325 325 324 324 323 323 322 322 322 321 320 319 318 318 318 318 318 318 318 318 318 318 318 319 319 319 319
324 324 330 330 320 316 318 316 315 315 318 322 321 320 319 317 318 323 328 331 331 331 332 335 344 341 333 332 330 329 328 328 328 328 329 330 332 333 333 333 334 334 334 335 335 335 335 335 334 332 331 331 332 331 330 328 327 326 323 323 323 322 324 326 326 326 323 321 322 323 323 323 321 321 320 320 320 320 320 319 318 318 318 318 318 318 318 318 318 318 318 317 318 319 320 320 319
326 326 328 326 318 316 318 316 316 316 319 321 320 319 317 317 317 320 325 326 330 330 325 330 337 333 331 331 330 330 329 327 327 328 328 329 329 331 332 332 333 332 332 333 333 334 335 335 334 333 332 332 332 331 330 329 329 328 326 324 323 321 321 323 325 326 324 320 320 321 321 321 320 320 320 319 318 318 318 318 317 317 318 318 318 318 318 318 318 317 317 317 318 318 319 320 321
328 328 328 326 319 316 316 317 318 319 319 319 318 316 315 318 317 316 320 321 327 325 314 320 330 330 331 330 330 330 329 328 328 328 328 329 329 330 332 332 332 332 331 332 332 333 334 335 334 334 333 332 332 331 331 330 330 329 328 327 325 323 321 319 321 324 325 322 320 320 322 323 322 323 323 322 319 318 317 317 317 317 318 318 318 318 318 318 317 317 317 317 318 318 318 321 323
328 330 329 323 318 316 316 317 321 320 318 319 319 319 320 321 316 315 320 321 322 320 316 325 331 329 331 332 331 330 328 329 328 329 329 328 329 329 330 331 331 332 332 332 332 332 332 334 334 334 333 332 331 330 331 330 330 330 329 328 327 325 323 319 318 321 325 323 321 321 323 324 324 324 324 323 322 320 318 316 316 317 317 318 317 318 318 318 317 317 317 317 317 317 318 321 323
329 330 328 323 320 317 315 315 319 320 318 320 323 325 327 322 316 320 323 322 324 327 331 336 333 332 333 332 331 329 329 329 329 329 328 328 328 328 328 329 330 331 332 332 332 332 331 332 334 334 332 331 331 330 330 330 330 330 330 329 328 326 324 320 317 318 322 323 321 322 324 325 325 324 324 323 323 322 320 318 316 316 317 317 317 317 318 318 317 317 317 316 315 316 320 322 323
331 328 326 325 325 320 318 318 320 319 318 320 323 326 327 321 318 324 326 323 330 338 340 337 334 336 334 332 332 329 329 329 330 330 329 329 328 328 328 328 329 330 330 330 330 331 332 332 333 333 333 331 330 329 329 329 330 330 330 329 328 326 324 322 318 316 319 321 321 322 325 325 325 325 325 325 324 324 323 321 317 316 317 317 317 317 318 318 317 317 316 315 314 318 322 323 324
330 326 326 326 325 325 325 325 323 319 318 321 322 325 326 321 318 323 325 321 327 341 345 337 335 336 333 332 332 329 329 330 330 330 329 329 328 328 328 327 328 329 330 329 329 330 332 332 333 333 333 332 331 330 328 328 328 329 330 329 329 326 324 323 321 316 316 318 320 322 324 324 325 325 325 325 325 325 325 323 320 317 317 317 318 318 318 318 317 316 315 314 316 321 323 323 324
328 326 328 326 323 327 327 326 326 319 318 322 322 325 325 322 320 322 323 320 325 339 345 339 335 334 333 332 332 330 329 330 330 330 330 330 329 329 329 329 328 328 328 329 329 329 330 331 332 333 333 332 332 330 328 328 328 328 329 329 328 327 325 324 324 320 317 317 319 322 323 323 323 324 325 326 325 325 325 325 321 318 317 318 318 318 318 317 316 315 313 314 319 322 323 323 324
328 326 329 328 326 329 328 326 326 320 319 321 324 327 327 326 325 323 321 321 328 339 343 338 333 333 333 332 332 331 329 329 329 329 330 331 330 330 329 329 329 328 327 328 328 328 329 330 331 331 331 331 331 329 329 328 328 328 328 328 328 327 325 325 325 324 322 320 319 320 322 323 323 323 325 326 326 325 325 325 322 317 316 316 316 317 317 316 315 314 314 316 320 322 323 324 324
328 328 329 331 333 335 331 326 325 323 320 321 326 328 327 331 334 329 321 319 326 335 339 336 332 333 332 332 332 331 330 329 329 330 330 330 330 330 330 330 329 329 327 326 326 326 327 328 330 329 329 330 330 329 328 328 328 328 328 328 328 327 325 325 325 325 325 323 321 321 321 322 322 322 323 325 325 326 325 323 320 317 315 315 315 315 316 315 315 315 316 319 322 323 323 324 324
327 332 333 333 335 336 333 327 325 327 322 320 327 329 330 331 333 332 322 317 321 325 331 332 331 332 332 332 331 332 331 328 329 330 330 330 330 331 330 330 329 329 328 326 325 325 326 327 327 328 328 329 329 328 328 328 328 327 327 327 327 327 326 325 325 325 326 325 324 322 322 322 322 322 323 323 325 325 324 321 319 318 317 317 316 316 315 314 316 318 320 322 323 324 324 324 324
327 333 336 334 332 333 334 330 324 327 324 321 325 330 333 328 323 325 319 315 318 319 323 326 328 330 329 330 331 332 332 330 329 329 329 330 330 330 331 330 330 329 329 328 327 327 327 327 327 327 327 327 327 328 328 328 327 327 326 326 326 326 325 324 324 325 326 325 325 324 323 323 323 323 322 322 323 324 323 321 319 319 320 321 319 318 318 317 320 322 322 323 324 324 324 324 324
329 331 336 335 332 331 335 333 324 326 326 323 324 326 329 326 323 324 319 316 318 318 318 320 323 326 326 328 329 330 332 332 330 328 329 330 330 331 330 330 330 330 329 328 328 328 328 328 327 327 327 327 326 327 327 327 326 326 326 326 325 326 325 324 324 325 326 325 325 324 323 322 322 323 323 322 323 323 322 321 320 320 322 323 322 321 321 322 323 323 324 324 324 324 324 324 324
331 331 335 335 333 331 334 334 326 325 327 326 326 325 324 325 326 326 322 318 319 319 318 317 317 320 323 325 326 327 330 332 330 328 329 330 330 330 330 330 330 330 330 329 329 329 329 328 327 327 327 327 327 327 326 326 325 325 325 325 326 326 325 324 325 325 325 325 325 324 323 322 322 322 322 323 322 322 320 319 319 319 321 323 323 324 324 324 325 324 324 324 324 325 324 324 324
331 331 333 335 335 332 331 332 327 324 326 327 327 327 324 324 324 324 323 319 319 320 318 316 315 315 317 320 322 323 326 328 328 327 329 329 330 330 330 330 330 331 331 330 330 329 329 329 328 327 327 327 327 327 327 326 326 326 326 326 326 325 324 325 325 324 324 324 323 322 322 321 321 322 322 323 323 322 319 316 316 317 319 322 324 324 325 325 325 325 325 325 325 325 325 324 323
331 331 333 333 335 334 331 330 327 322 326 328 326 326 325 324 323 322 321 319 319 321 319 316 315 314 314 316 318 320 322 323 323 325 327 328 329 330 330 330 330 330 331 331 331 330 330 330 328 328 327 327 327 327 327 327 327 326 326 326 326 324 323 324 324 323 322 322 322 321 320 319 320 320 321 322 323 323 321 318 317 317 318 320 323 323 324 325 325 325 325 325 325 325 325 325 324
332 332 332 332 334 335 332 329 325 319 325 330 325 324 324 322 322 320 319 319 319 319 320 319 317 314 313 313 315 317 318 318 319 322 324 326 329 329 330 330 330 330 330 331 331 331 330 330 329 329 328 327 327 327 328 328 327 327 326 326 325 323 322 322 322 320 320 321 322 321 320 319 319 319 319 321 323 324 323 321 319 319 319 320 321 323 324 326 326 326 326 326 326 325 325 325 324
334 332 332 334 332 331 330 325 320 318 324 331 327 323 323 321 320 319 319 318 318 318 317 319 319 317 314 313 313 314 317 318 319 320 321 324 327 328 330 330 330 330 330 330 331 331 331 330 330 329 329 328 328 328 328 328 328 328 327 326 325 324 322 321 320 319 320 321 322 322 322 321 320 320 319 319 321 323 323 322 321 320 320 320 321 323 324 326 326 327 326 326 325 325 325 325 325
334 333 333 335 332 332 336 328 318 318 321 325 324 322 321 320 320 319 317 317 317 318 318 317 318 319 317 315 313 313 315 317 319 321 320 321 324 327 329 330 330 330 330 330 331 330 331 330 330 329 329 329 329 329 329 329 329 328 328 327 326 325 324 323 322 321 321 322 323 323 323 323 322 322 320 320 320 320 320 321 321 322 321 321 321 323 325 325 326 326 326 326 325 325 325 325 325
333 332 333 334 332 332 334 326 320 320 321 321 321 326 330 327 325 323 320 320 317 316 317 317 317 317 317 317 316 315 315 315 317 320 320 319 321 324 327 329 330 330 330 330 330 331 330 331 330 330 329 329 329 330 330 329 328 328 327 327 326 325 325 325 324 324 323 324 324 323 323 323 323 323 322 322 322 321 320 320 320 321 322 322 321 322 324 324 325 325 325 326 325 325 325 325 325
333 331 331 332 333 330 325 323 325 327 330 326 322 332 342 337 333 330 326 325 322 317 317 318 317 316 316 317 317 316 315 315 316 318 319 318 319 323 326 328 329 330 330 330 330 331 331 330 331 330 330 329 329 329 329 329 328 327 327 326 326 325 325 325 325 325 325 325 325 324 324 324 323 323 323 323 323 323 323 322 321 321 322 322 322 322 322 323 324 324 324 325 325 325 325 324 325
333 332 331 331 331 328 324 325 330 334 334 326 322 332 342 337 334 333 330 329 326 320 319 319 317 316 317 316 316 316 315 315 316 317 318 318 318 320 323 326 328 329 330 331 331 331 331 331 331 331 330 330 329 329 329 328 328 327 327 327 326 326 326 326 326 326 326 325 325 325 325 324 324 324 324 324 324 324 324 323 323 322 322 322 323 323 322 322 323 323 324 324 325 325 325 324 324
334 331 331 330 328 328 324 325 334 335 327 325 326 329 333 332 331 330 328 327 327 324 322 320 317 315 316 316 316 317 316 315 315 316 318 318 317 319 322 324 327 329 330 330 330 331 331 331 331 331 331 330 329 329 329 328 328 327 327 327 327 327 327 327 327 326 326 326 326 326 326 325 325 325 325 325 325 325 325 324 324 324 323 323 323 323 324 324 323 323 324 324 324 325 325 325 324
331 327 327 326 326 327 323 324 334 331 326 331 329 323 329 336 335 331 327 327 329 327 325 322 320 318 316 316 316 316 316 316 315 315 316 316 315 318 320 322 325 327 329 329 330 331 331 331 331 331 330 331 330 330 329 329 329 328 327 327 326 327 327 327 327 326 326 326 326 326 326 326 326 326 326 326 326 326 326 325 325 325 325 324 325 325 325 325 324 324 324 324 325 325 325 325 325
327 325 326 324 325 326 323 328 336 333 333 337 329 325 334 338 336 333 329 329 330 327 326 324 323 322 319 317 317 316 316 316 315 315 314 313 315 317 319 321 323 325 327 328 329 330 330 331 331 331 331 331 331 330 330 329 329 328 328 327 327 327 327 326 326 326 326 326 326 326 326 326 326 326 327 327 327 327 326 326 326 326 326 326 326 326 325 325 325 325 325 325 326 325 326 326 325
327 329 330 329 330 331 331 334 336 335 336 336 330 331 336 336 338 337 331 331 330 326 326 325 322 324 324 323 321 318 317 316 315 314 311 310 313 316 317 319 322 324 326 328 329 329 330 330 330 331 331 331 331 330 330 330 329 329 328 328 328 328 327 327 326 326 326 327 327 327 327 327 327 327 327 327 327 328 328 328 327 327 327 327 327 327 326 326 326 326 327 327 327 326 326 326 326
330 334 334 334 333 333 335 335 334 335 336 334 329 330 334 336 337 335 331 329 327 325 326 325 325 327 328 326 323 321 320 317 315 315 312 311 312 312 315 318 320 322 324 326 328 329 329 330 330 331 331 330 331 330 330 330 330 329 329 329 329 328 328 327 327 327 327 327 327 327 327 327 327 327 327 327 327 327 327 328 328 328 327 327 328 328 328 328 328 328 328 328 327 327 327 326 326
331 333 333 336 334 334 336 334 334 336 333 327 324 328 333 333 331 331 330 327 325 324 322 322 324 326 327 326 324 324 323 320 317 315 313 313 313 310 311 315 318 320 323 324 326 328 328 329 329 330 331 330 330 330 330 330 330 330 330 329 329 329 328 328 328 328 328 328 327 327 327 327 327 327 327 326 326 326 326 326 327 328 328 328 328 328 328 328 328 328 328 328 328 327 327 326 326
331 329 332 336 334 337 340 335 335 337 330 322 321 327 332 332 330 328 327 325 326 325 323 322 322 323 325 324 323 322 321 321 318 315 314 315 313 309 308 312 316 318 321 323 325 326 327 328 329 329 330 330 330 330 330 330 330 330 330 330 330 329 329 329 329 329 328 328 328 328 328 327 327 327 327 326 326 326 326 326 326 327 327 328 328 328 328 328 328 328 329 328 329 328 327 326 326
329 329 333 334 335 340 341 338 338 335 328 322 321 327 334 336 333 326 321 323 323 322 323 322 321 321 320 319 318 319 320 320 318 314 315 314 309 307 308 310 313 316 319 321 323 325 326 327 328 328 329 329 329 330 330 330 330 330 330 330 330 330 329 329 329 329 329 329 328 328 328 328 328 327 327 327 327 327 327 327 327 327 327 327 328 328 328 328 328 327 328 328 328 328 327 326 326
329 331 335 335 336 339 336 331 332 332 330 327 324 327 331 331 328 322 319 322 322 320 321 321 322 320 317 318 320 320 320 322 322 317 316 314 307 306 308 309 310 313 316 319 322 323 325 326 326 327 328 328 328 329 329 330 330 330 330 330 330 330 329 329 329 329 329 329 329 328 328 328 328 328 328 328 327 327 327 327 327 327 327 327 328 328 328 328 328 328 327 327 327 328 327 326 326
329 330 333 330 329 334 333 325 324 329 333 332 328 328 329 328 326 324 324 326 324 322 322 323 325 323 320 323 325 323 325 328 329 324 320 315 308 306 308 309 310 311 313 317 319 321 324 325 326 327 327 327 327 327 328 329 329 329 329 329 329 329 329 329 329 329 329 329 328 328 328 328 328 328 327 327 327 327 327 327 327 327 327 328 328 328 328 328 329 328 328 328 327 327 328 328 328
330 331 330 327 326 332 334 329 327 331 333 333 329 327 331 331 330 330 328 326 323 324 325 324 325 323 321 324 326 325 327 328 329 327 322 316 307 304 307 308 309 310 311 314 316 319 322 323 324 326 326 326 326 326 327 328 328 328 328 328 328 328 329 328 329 329 329 328 328 328 328 328 328 328 328 328 327 327 327 327 327 327 327 328 328 328 328 328 329 329 328 328 327 327 328 328 327
328 330 327 329 332 332 331 331 331 331 332 334 329 323 327 328 328 329 327 326 329 333 331 326 326 324 320 323 327 324 324 326 328 328 328 325 312 302 305 307 308 309 310 311 312 314 318 320 322 324 325 326 326 326 326 326 327 327 327 327 328 328 328 328 328 328 328 328 328 328 328 328 328 328 328 328 328 328 328 327 327 327 327 327 327 327 327 327 328 328 327 327 327 328 328 328 326
326 328 327 329 332 331 331 331 331 331 330 333 330 325 327 327 323 323 323 323 326 331 330 328 329 326 322 325 326 323 323 326 329 329 331 333 316 302 304 307 307 308 309 309 310 311 313 316 318 321 322 324 325 325 325 325 326 326 326 326 327 327 327 327 327 328 327 328 328 328 328 328 328 329 329 329 329 328 328 327 327 327 327 327 327 327 327 327 327 327 327 327 327 327 328 327 326
325 330 329 328 327 328 333 332 330 332 332 334 334 329 331 329 321 319 322 320 320 323 324 325 327 326 325 325 322 320 321 322 327 330 331 330 312 301 305 307 306 308 309 309 310 310 311 312 314 317 320 322 323 323 324 325 325 326 326 326 326 326 327 327 327 327 327 328 328 328 328 329 329 329 329 329 328 328 327 327 326 325 326 325 325 325 325 326 326 326 326 325 326 326 325 325 324
326 328 328 328 326 327 333 332 329 331 330 332 332 328 331 334 324 317 318 319 318 320 321 321 323 324 326 324 318 316 319 323 326 325 327 325 310 302 306 307 307 309 309 310 311 310 311 311 311 314 317 319 321 322 323 324 324 325 325 326 326 326 326 326 327 327 327 327 328 328 328 328 328 328 328 328 327 327 326 325 324 324 324 324 323 323 324 324 325 325 324 324 324 325 324 324 324
Wind_Speed
6 6 7 7 5 1 2 5 2 2 4 2 1 1 2 2 1 2 0 1 2 2 2 1 3 4 4 5 7 5 3 4 4 4 3 4 8 19 16 11 12 18 18 16 15 14 14 14 13 12 13 13 12 10 11 12 11 11 12 11 9 8 8 10 11 13 14 13 12 12 14 14 13 14 15 15 14 14 14 13 13 13 14 14 14 15 16 16 17 16 16 15 15 15 15 15 15
7 6 7 5 5 2 1 3 3 3 5 2 2 2 2 2 1 3 3 2 2 2 2 6 7 7 7 7 6 4 2 1 2 3 1 3 13 17 12 11 15 19 18 16 15 15 15 14 13 12 13 13 12 11 12 12 10 10 10 10 10 9 9 10 11 12 12 12 12 12 13 13 13 15 15 15 14 14 14 14 14 14 14 14 15 15 16 16 16 16 15 15 15 16 17 17 17
7 6 6 3 3 3 1 4 2 1 4 2 3 3 1 2 4 5 5 4 6 6 4 5 6 4 5 5 3 2 0 3 1 2 1 9 13 13 14 13 16 18 18 16 15 15 16 15 13 12 12 12 12 12 13 13 12 12 11 10 10 10 11 11 11 11 12 12 11 12 13 12 15 16 14 14 14 14 14 14 14 14 14 14 14 14 15 15 15 15 15 15 14 15 17 18 18
7 6 6 1 2 4 4 4 2 4 3 3 2 4 2 5 7 5 4 4 6 5 2 3 3 2 3 5 1 2 1 2 2 3 4 12 13 15 18 15 17 19 18 16 15 16 16 15 12 11 12 12 12 13 13 14 12 12 12 11 11 11 12 12 12 12 12 12 10 11 13 13 14 15 13 14 15 14 14 13 12 12 13 13 14 14 14 15 15 15 14 14 14 15 16 17 17
6 6 7 3 2 2 3 3 2 4 3 4 2 4 4 6 7 6 3 3 4 3 2 3 2 2 2 4 1 1 2 1 3 5 8 13 15 19 19 16 18 19 18 16 16 16 16 15 12 11 12 13 13 13 13 13 12 12 13 12 11 12 13 13 12 12 12 12 10 11 13 13 13 12 12 15 16 14 13 12 12 13 13 13 13 14 14 14 14 14 14 13 14 15 15 16 16
4 4 8 7 3 1 3 2 1 1 4 5 3 4 5 6 6 5 4 3 4 3 2 2 3 2 2 1 0 3 3 2 5 8 11 14 16 19 18 17 18 19 18 16 17 17 17 16 13 12 13 13 12 13 13 12 12 13 13 12 12 13 13 12 12 12 13 13 11 10 12 12 11 12 13 13 14 13 12 12 13 14 13 13 13 13 13 13 13 13 13 13 14 15 15 15 15
4 2 5 7 3 1 4 2 3 3 3 5 4 4 7 6 5 5 4 3 1 1 1 2 5 6 1 2 1 2 1 1 6 10 14 17 19 19 18 18 19 20 18 16 18 18 18 17 14 14 14 14 13 13 13 12 13 13 13 12 12 13 13 12 12 13 13 13 11 11 11 11 11 13 13 11 12 14 13 12 13 13 13 13 13 13 13 13 13 12 13 13 14 14 14 14 14
4 2 1 4 2 3 4 1 3 3 1 3 4 4 7 6 5 5 3 2 2 0 2 2 3 5 1 2 1 3 3 3 6 12 17 19 21 19 18 19 20 21 18 16 18 18 18 16 15 15 15 14 13 14 13 12 12 12 12 12 13 13 13 13 13 13 13 12 11 11 12 12 12 13 12 10 11 12 12 11 12 12 13 13 13 13 13 13 12 13 13 13 12 12 12 13 13
5 3 1 3 2 2 3 1 2 2 3 3 3 3 3 4 4 4 3 1 1 2 1 4 1 2 1 2 0 5 3 4 9 15 20 20 22 20 19 19 21 22 19 17 18 19 19 17 16 15 14 13 13 14 13 12 11 12 12 12 13 12 12 14 13 13 13 13 11 10 12 12 12 11 10 10 10 10 10 11 12 11 12 12 12 12 13 13 13 13 13 12 11 11 11 11 12
4 3 1 2 2 2 3 2 2 2 3 3 3 4 3 4 4 3 4 2 2 3 1 2 3 3 4 1 1 3 0 10 15 20 21 22 22 21 19 18 21 22 21 18 19 20 19 18 17 16 14 13 14 14 14 12 12 12 12 13 12 11 12 14 13 11 12 12 12 11 11 12 11 11 10 10 10 9 10 11 12 12 11 11 11 12 13 14 14 13 12 12 11 10 10 10 10
2 3 2 3 3 1 1 2 3 3 3 3 2 4 4 4 4 2 2 3 1 3 3 1 4 4 5 1 2 3 4 15 20 23 23 23 22 21 20 19 18 19 21 20 20 21 19 18 16 16 15 13 13 13 14 13 12 12 12 12 11 11 11 13 13 12 12 12 12 11 10 11 10 11 10 10 10 10 10 11 11 12 11 11 11 12 13 14 13 13 12 11 10 9 9 9 9
1 2 4 2 2 2 2 2 3 3 4 3 2 4 3 4 4 3 3 4 2 3 4 2 4 4 5 1 3 1 6 17 21 24 24 23 23 20 19 19 18 16 20 21 21 22 19 18 17 16 14 13 13 12 14 14 12 13 12 12 11 11 11 12 13 12 13 12 12 12 11 11 10 11 10 10 10 9 9 10 10 10 10 10 10 11 12 13 12 12 11 10 10 8 8 8 7
2 1 4 2 2 3 3 3 3 1 4 3 4 2 4 4 4 7 6 4 3 3 4 5 6 4 4 1 2 1 7 16 20 22 23 23 23 21 20 19 18 16 18 21 21 22 20 19 18 16 15 13 13 13 13 14 14 14 13 12 11 11 11 11 12 13 13 13 13 13 12 12 12 11 10 10 8 8 8 9 10 10 10 10 9 11 12 12 11 11 10 10 9 8 7 7 6
2 2 4 2 1 2 4 2 1 3 3 5 3 1 3 2 4 7 7 5 2 3 2 4 8 4 3 1 2 2 9 18 20 21 22 22 22 21 20 19 19 17 18 21 22 22 21 19 19 16 15 14 13 13 12 12 14 16 15 13 11 11 12 12 13 14 14 15 14 13 12 12 12 11 10 9 8 7 8 9 9 9 9 10 10 11 11 11 10 9 9 8 8 8 8 7 6
3 2 3 3 1 0 3 2 3 5 4 5 3 2 2 1 3 5 5 7 2 3 2 2 4 2 3 5 4 7 16 22 21 21 22 21 22 21 21 20 19 17 19 22 22 22 22 20 19 16 15 14 13 13 12 12 12 15 15 14 14 13 13 13 14 15 16 15 14 13 11 11 11 10 9 9 8 7 7 9 9 9 10 10 11 11 11 10 9 8 8 7 7 7 7 7 6
3 3 3 2 1 1 3 2 3 4 4 5 2 2 4 2 2 3 3 5 3 1 2 2 2 0 5 8 6 12 23 23 21 21 22 22 21 20 20 20 18 17 20 23 22 23 21 19 18 16 14 13 12 12 12 12 11 12 14 15 15 14 13 11 12 14 14 13 13 12 11 10 11 10 9 9 8 7 8 8 9 10 11 11 12 12 11 9 9 8 7 6 6 6 6 6 6
2 4 2 1 3 3 4 4 4 4 5 5 4 2 6 1 1 2 1 4 5 2 2 2 1 2 5 5 5 15 27 22 22 23 23 23 21 19 18 18 17 19 22 23 23 23 21 19 18 17 15 13 13 12 11 12 12 11 12 14 14 14 13 10 10 13 12 12 12 12 11 11 11 10 10 9 8 8 8 8 9 11 12 12 12 11 10 9 8 8 7 5 5 5 5 5 5
2 3 2 2 3 4 5 6 6 4 4 5 5 3 7 4 2 1 2 5 3 3 2 3 4 4 3 5 2 21 28 23 24 25 23 22 21 20 17 18 18 21 23 23 25 25 23 21 19 17 16 15 14 12 12 12 13 12 11 12 13 13 13 11 10 12 12 11 12 12 12 12 12 12 11 10 9 9 9 9 9 11 11 12 11 11 10 9 9 8 7 5 4 4 5 5 3
2 3 2 4 4 4 5 7 6 3 3 5 3 2 5 6 5 3 3 2 1 3 1 4 4 5 2 3 13 25 27 26 26 25 23 21 22 22 19 19 20 23 24 24 26 26 24 23 21 19 18 17 15 13 13 13 13 12 12 12 12 12 13 12 11 12 12 12 12 12 12 13 13 13 12 11 10 10 11 10 10 12 12 12 12 11 10 10 9 8 7 5 4 4 4 4 3
2 3 2 5 4 3 4 5 6 4 4 7 3 2 2 3 3 1 4 4 1 4 4 0 2 3 2 7 16 24 25 25 25 25 24 22 22 23 22 22 22 23 24 25 25 26 25 24 23 21 19 18 16 14 14 14 13 12 13 13 12 13 13 13 12 12 13 13 13 13 13 13 13 14 13 13 12 11 12 12 12 13 13 13 12 12 11 10 9 8 6 5 4 3 3 3 4
2 3 4 5 3 2 4 5 5 5 5 7 4 4 2 2 1 1 5 5 3 6 7 7 8 8 7 7 13 20 22 22 22 23 23 22 22 23 23 24 23 22 23 23 24 26 26 25 24 22 21 20 18 16 15 15 13 13 13 13 13 13 14 15 14 13 14 14 14 14 14 14 14 15 15 15 14 13 13 13 14 14 14 14 14 13 11 10 9 8 7 6 5 5 3 3 4
2 2 4 4 3 2 3 4 3 3 4 6 6 5 4 1 1 3 8 7 5 7 8 10 9 11 13 12 14 16 18 19 19 21 21 23 23 23 24 23 23 22 23 24 24 26 26 26 25 22 22 21 19 17 16 15 14 14 13 13 14 14 15 15 15 15 14 15 15 15 16 15 16 15 14 15 14 14 14 14 15 14 15 15 15 13 12 11 10 9 8 8 7 6 4 3 4
2 2 2 3 3 2 2 2 2 2 6 6 6 4 3 3 1 3 8 8 7 6 7 9 8 13 17 17 16 14 14 17 19 22 23 24 25 25 26 26 26 26 26 27 26 26 27 28 26 24 23 22 21 18 17 17 16 14 14 13 14 15 15 17 17 17 16 16 16 17 17 17 17 16 14 14 14 14 15 15 15 15 16 16 15 14 13 12 11 10 10 9 9 7 6 5 4
2 2 2 2 4 3 2 3 1 3 6 5 4 4 4 6 3 1 5 9 9 6 3 5 9 13 16 15 14 15 17 19 22 26 27 27 28 28 28 29 29 29 29 29 28 28 28 29 28 27 25 24 23 21 20 19 18 16 15 15 16 16 17 18 19 19 18 17 18 19 19 18 17 16 15 14 14 14 15 15 16 16 16 16 15 14 14 13 12 12 11 11 10 9 7 7 7
3 4 1 0 2 2 1 3 3 4 3 1 4 3 4 6 4 1 6 10 9 5 2 7 10 11 12 12 13 14 15 19 21 23 25 26 26 26 25 26 27 28 30 31 30 30 30 29 29 29 27 26 24 23 22 22 21 19 19 19 18 18 19 20 20 21 20 20 20 21 20 19 18 18 17 16 15 15 14 15 16 17 17 16 15 15 14 14 13 13 12 12 11 10 9 8 8
5 6 2 0 2 0 2 1 2 3 1 2 3 2 5 3 2 2 8 9 4 1 5 7 9 10 10 10 12 14 14 17 21 22 24 24 24 24 25 26 26 28 31 31 31 31 30 29 30 30 29 28 26 25 25 24 23 23 22 22 20 20 20 20 21 22 23 22 22 23 22 21 20 19 18 17 16 15 15 15 17 17 17 17 16 16 15 15 14 13 13 13 12 11 10 9 10
5 6 3 2 2 1 3 1 2 2 1 2 3 5 5 2 1 4 8 5 3 6 5 6 9 10 11 10 11 15 16 19 24 22 21 21 23 25 27 29 30 31 32 31 32 32 31 30 30 30 30 28 27 26 26 26 25 25 24 23 22 22 21 20 21 23 24 24 24 25 24 23 21 20 19 19 18 16 15 16 17 18 18 17 17 17 16 16 15 14 14 13 12 12 11 10 11
4 6 3 1 2 3 1 0 3 1 1 4 5 4 5 2 1 6 7 2 5 7 6 7 9 9 11 10 10 12 15 20 23 20 20 23 25 28 30 31 32 34 34 33 33 32 32 32 31 31 30 29 29 28 27 27 26 26 25 24 24 23 22 21 21 22 24 25 26 26 26 24 22 21 20 20 19 17 17 17 18 19 19 18 18 17 17 16 16 15 14 13 12 12 12 12 12
4 5 3 1 4 5 5 2 2 3 1 4 5 4 8 6 6 9 7 2 4 6 7 8 9 9 8 9 8 9 14 17 18 20 25 28 28 29 31 33 34 35 35 35 35 34 33 33 33 32 32 31 31 30 29 28 27 27 26 26 25 24 23 23 22 21 22 23 26 27 27 25 24 22 21 21 20 19 19 18 19 20 20 19 19 18 17 16 15 16 15 14 14 14 14 13 13
2 3 2 1 2 5 7 5 4 4 3 4 4 3 10 9 8 11 8 5 6 6 7 8 8 8 7 8 8 8 12 15 18 24 29 29 29 31 32 34 35 36 35 34 34 34 34 33 33 33 33 33 32 31 30 29 28 28 27 27 26 25 24 24 24 23 22 22 24 27 28 26 25 23 22 22 21 21 21 21 21 21 20 19 19 18 18 16 16 16 16 16 16 15 15 14 14
3 2 0 2 2 4 5 5 7 5 3 4 5 6 10 5 6 10 7 7 8 8 9 8 8 7 7 7 8 9 11 17 22 26 29 28 30 31 32 33 34 35 35 34 35 35 35 34 34 34 34 33 32 32 32 31 30 29 29 28 27 26 26 26 26 26 25 24 24 25 27 27 26 25 24 24 23 23 23 23 22 21 20 19 19 19 18 17 17 17 16 16 16 16 16 15 16
3 3 1 2 4 4 5 3 10 9 3 4 6 5 8 4 6 7 3 7 9 9 9 9 9 9 9 8 9 9 10 16 21 24 26 27 29 30 32 33 33 35 35 36 36 35 35 35 36 36 35 35 34 34 33 32 31 30 30 29 29 28 28 28 28 27 27 26 26 26 26 27 27 27 27 27 27 26 25 24 23 22 20 19 19 19 19 19 18 19 18 17 17 17 16 17 17
3 4 3 4 6 3 4 3 8 10 4 3 6 6 4 2 4 3 1 6 8 8 9 8 9 9 9 8 8 9 8 11 15 22 27 28 30 32 32 34 34 35 35 36 36 36 36 36 36 36 37 37 36 36 35 34 33 33 32 31 31 31 31 30 29 28 28 28 28 28 27 27 28 28 28 29 29 28 26 25 24 22 20 19 19 20 20 19 19 19 19 18 18 18 17 18 18
4 2 1 4 5 4 2 4 4 7 7 6 8 9 8 5 4 3 2 5 7 7 9 8 8 8 8 8 7 8 9 9 11 21 29 30 31 32 33 34 34 34 35 36 36 37 37 37 37 37 37 36 36 36 36 36 36 35 34 33 33 33 33 32 30 30 30 30 30 30 29 28 28 28 28 29 30 30 29 28 26 23 22 21 21 21 21 20 20 20 20 20 20 20 19 19 19
8 6 4 4 4 5 6 4 2 8 8 8 7 9 14 11 9 8 3 6 6 7 8 8 9 8 8 8 8 9 10 10 14 24 30 31 31 31 32 32 32 33 34 35 36 36 36 36 37 37 37 36 35 35 35 35 36 36 35 34 34 35 34 33 32 32 32 32 32 32 32 30 29 29 29 30 30 30 30 30 28 25 24 24 23 23 22 22 22 22 23 22 22 22 21 20 19
13 11 9 5 4 5 5 4 4 7 7 8 11 11 15 12 10 13 9 5 5 8 7 7 7 7 7 8 8 10 10 12 19 24 26 27 30 31 31 31 31 33 34 35 36 36 37 36 36 37 37 37 35 34 34 35 35 36 35 34 35 35 35 35 34 34 34 34 34 33 33 33 32 31 30 30 30 30 30 30 29 27 27 27 27 27 26 26 25 25 25 24 24 23 23 22 20
11 10 8 6 5 5 4 4 5 4 5 7 12 12 13 11 11 13 9 2 4 9 8 8 8 7 8 9 11 12 12 14 17 19 20 24 29 30 30 29 29 31 33 34 35 36 37 36 36 37 38 37 37 36 35 35 35 35 34 35 36 36 36 36 36 36 35 35 35 34 35 35 35 33 32 32 32 31 30 30 31 30 30 30 30 30 29 28 27 27 26 26 25 25 25 23 21
8 8 7 6 6 5 4 4 4 2 3 5 6 9 12 11 12 12 7 5 9 11 10 9 9 9 8 10 13 13 11 10 10 13 19 23 26 28 30 29 30 31 33 35 36 37 37 37 38 38 38 38 38 38 36 36 36 35 35 35 36 36 36 37 37 37 36 35 35 35 35 35 36 36 35 34 34 34 33 32 32 32 33 33 33 33 32 31 30 29 28 28 27 26 26 24 21
8 7 6 6 5 2 3 3 3 1 3 3 2 5 10 10 11 11 9 10 12 11 11 11 10 10 10 10 12 11 10 9 8 11 16 21 25 28 29 30 32 33 33 35 36 37 36 37 39 39 39 39 39 39 38 38 37 35 35 34 34 34 35 36 37 37 36 36 36 35 35 35 36 37 37 37 36 36 35 35 34 34 34 35 35 35 34 33 32 31 30 30 28 25 25 24 22
7 7 6 5 4 4 3 3 2 1 2 1 1 4 8 7 8 11 12 12 11 9 11 12 10 11 12 11 10 10 12 12 10 10 12 18 23 25 27 31 33 33 32 34 36 37 37 39 40 39 39 39 40 40 40 39 37 35 34 34 33 32 32 33 34 35 36 36 36 36 36 36 36 37 37 37 38 38 37 37 36 36 36 36 36 36 35 34 33 32 31 30 29 25 24 24 23
6 7 7 5 5 6 4 2 1 2 2 1 2 5 7 6 8 11 9 6 8 9 9 11 11 12 11 9 9 10 12 11 11 12 11 14 19 24 29 32 32 32 34 36 37 38 39 40 41 40 40 40 41 41 40 39 36 35 33 31 30 28 28 29 30 34 36 36 38 38 37 36 36 36 37 37 38 38 38 37 37 37 36 36 36 36 36 35 33 32 31 31 31 29 27 25 23
5 6 8 7 7 6 4 4 4 3 3 3 2 2 6 4 5 10 5 3 7 6 6 12 13 12 9 9 10 10 10 10 11 12 12 14 19 23 28 31 31 32 36 39 39 40 40 40 40 40 40 40 41 41 39 38 37 36 33 31 29 27 27 30 33 35 35 36 38 38 37 37 36 36 36 37 37 37 37 37 37 36 36 35 35 36 36 35 34 33 32 31 31 31 29 25 23
4 5 8 6 6 7 6 6 4 2 4 3 2 4 6 6 5 8 5 6 10 6 7 13 12 10 9 10 11 10 10 10 9 10 11 14 18 21 24 29 31 34 39 40 39 39 39 39 39 39 40 40 40 40 39 38 38 37 36 35 34 32 31 34 36 36 34 35 36 36 36 36 36 36 36 36 36 36 36 36 36 36 36 36 35 35 35 35 34 33 32 31 31 31 30 27 26
3 4 10 7 6 8 7 7 4 2 3 3 4 3 3 7 6 7 4 6 11 9 11 13 10 9 10 11 12 12 12 11 10 10 11 13 17 21 25 30 34 38 40 39 37 38 39 40 39 38 38 39 39 39 38 39 39 38 38 37 36 36 37 37 35 33 33 33 33 34 34 34 35 35 35 35 34 35 35 36 36 36 36 36 35 36 36 35 34 32 31 31 30 30 30 30 30
2 2 9 7 6 7 5 5 3 1 2 2 3 2 1 7 7 4 2 4 10 12 12 12 10 11 11 11 12 12 12 11 11 12 12 13 18 24 29 32 35 39 40 38 39 40 39 39 37 36 36 37 38 38 38 40 41 40 38 37 38 38 39 38 34 31 31 31 32 33 33 32 32 32 32 33 33 33 34 34 34 35 36 36 36 36 36 35 33 32 32 31 31 31 31 32 32
1 5 10 7 5 6 3 3 4 3 0 5 5 3 1 6 6 2 0 4 10 12 10 10 10 10 9 9 10 10 9 8 10 11 12 16 22 28 32 33 34 37 38 38 38 37 36 35 35 35 37 37 37 38 38 40 40 40 39 39 39 39 38 35 32 31 31 30 31 32 32 31 31 31 31 31 31 32 32 33 34 35 35 35 35 35 35 34 33 33 33 32 32 32 32 33 33
5 6 8 7 5 5 3 1 4 2 3 5 7 6 2 4 5 4 4 5 7 7 7 8 7 7 7 7 8 8 8 8 9 10 12 17 23 27 28 30 31 32 33 33 33 32 33 34 34 36 37 37 37 38 39 39 39 40 41 41 41 41 38 33 32 33 32 31 31 31 30 30 30 30 30 30 30 30 30 32 33 34 34 34 34 34 34 34 33 33 33 33 33 33 33 33 34
7 5 5 5 3 3 2 3 1 4 5 3 7 7 5 5 7 3 5 6 5 6 7 8 8 7 6 6 6 7 7 8 8 8 10 12 15 18 21 24 27 28 28 29 31 32 32 33 33 35 37 37 38 38 38 39 39 40 41 41 42 42 37 34 34 35 32 31 31 30 29 29 29 29 29 29 30 29 30 31 32 32 32 32 32 32 33 33 32 33 33 34 35 34 34 33 33
5 6 6 5 2 1 2 2 2 4 3 0 5 5 3 10 9 6 10 11 9 9 8 8 9 8 8 7 7 6 6 7 8 8 9 9 9 12 17 22 25 26 28 30 32 33 33 34 34 35 38 39 38 37 38 38 39 40 41 41 42 40 37 36 36 35 33 32 31 30 29 29 29 29 29 29 29 29 29 30 30 32 32 32 32 32 32 32 32 32 33 33 33 32 32 33 34
8 8 9 7 4 4 6 4 1 2 1 2 2 1 2 8 7 8 14 14 12 9 8 9 9 9 10 9 7 7 6 7 7 8 8 8 9 13 18 22 24 27 30 32 33 34 35 35 35 36 38 38 36 37 37 37 39 41 41 41 41 39 37 37 37 36 34 33 32 31 31 31 31 30 30 29 29 28 27 28 28 29 31 31 32 32 32 32 32 32 32 32 31 31 31 33 34
10 7 6 5 4 5 5 3 2 2 2 2 1 2 4 5 4 6 9 10 9 8 7 7 7 9 8 7 7 7 8 8 7 7 8 8 10 15 18 21 23 26 29 31 33 33 34 34 35 37 38 37 36 38 38 38 40 40 39 40 40 39 38 37 37 37 36 34 33 32 32 32 32 32 31 30 29 28 27 27 27 27 28 28 30 31 31 32 31 31 32 31 32 31 31 32 33
6 4 4 4 4 4 3 2 3 4 2 1 2 3 4 4 9 13 11 10 9 9 8 7 8 9 6 6 8 8 8 8 6 7 8 8 10 14 16 19 22 24 26 28 30 31 33 34 36 37 39 38 36 37 38 39 40 39 39 40 39 38 38 37 37 37 36 35 34 34 34 34 33 32 31 29 28 28 28 27 27 27 26 26 27 28 29 30 31 31 31 31 33 33 33 33 31
3 4 6 4 3 6 5 1 2 5 3 4 3 5 5 4 11 13 11 13 12 8 7 7 9 8 7 7 8 7 8 7 6 6 7 7 9 12 17 20 22 24 25 28 30 32 34 35 36 37 38 36 34 36 37 38 39 38 38 39 38 38 38 38 38 37 36 36 35 35 35 34 33 32 30 29 29 28 28 28 28 28 27 26 27 27 27 28 29 30 30 30 31 33 34 32 27
6 6 7 3 3 3 4 2 2 3 4 4 3 7 4 2 7 6 5 9 12 9 7 7 8 7 7 9 8 7 8 7 6 6 6 6 8 12 17 20 22 23 25 28 30 31 32 33 34 34 34 34 34 35 36 37 37 37 38 37 37 37 36 37 37 37 36 35 35 35 34 33 33 31 30 30 29 29 29 28 28 28 27 26 26 26 27 27 28 29 30 30 31 32 32 29 25
5 6 6 4 2 3 2 4 3 3 4 3 3 4 3 7 8 5 6 8 8 8 6 6 8 7 7 9 8 8 8 6 6 6 6 6 8 12 15 17 18 20 21 23 25 25 27 29 30 31 32 33 33 33 33 34 35 36 36 36 35 35 35 36 37 36 35 34 34 34 33 33 31 30 30 29 29 29 29 28 27 27 26 25 25 25 25 25 26 27 29 31 32 31 30 28 26
4 5 5 2 2 4 4 3 3 4 5 3 2 2 4 9 7 7 14 13 9 8 7 6 8 8 8 8 7 8 7 7 6 6 7 7 7 9 11 13 14 15 16 18 19 20 23 25 27 29 30 30 30 30 31 32 33 33 33 33 33 34 35 35 35 34 33 33 33 32 31 31 29 28 28 28 28 28 27 26 25 24 23 23 23 23 23 24 26 28 28 29 30 29 28 27 26
5 8 8 5 2 1 2 2 2 4 4 3 2 3 6 6 4 10 16 15 12 11 8 8 8 8 9 9 8 7 6 7 7 7 8 7 6 6 7 9 9 10 11 13 15 17 19 21 24 26 28 28 29 29 29 30 30 30 30 31 32 33 33 33 32 31 31 31 30 29 28 27 27 27 26 26 26 25 23 22 21 21 21 21 21 21 21 23 25 26 26 26 26 26 25 24 23
10 9 8 8 6 3 3 5 2 3 3 4 4 5 7 5 5 10 12 11 11 9 9 9 9 10 11 9 8 7 7 8 8 8 7 5 5 5 6 7 8 9 10 12 14 15 16 18 20 22 24 26 27 28 28 28 27 28 29 30 30 30 30 29 28 28 27 27 26 26 25 25 25 25 23 23 23 21 20 20 20 20 19 19 20 20 20 21 23 25 25 26 26 25 24 23 23
Wind_Direction
2 360 341 346 353 125 55 53 73 322 68 89 323 95 222 255 206 172 17 332 16 355 325 38 73 86 105 125 145 156 131 155 169 143 200 266 158 155 164 171 169 167 161 153 150 148 147 141 139 140 136 131 132 135 127 130 138 139 126 118 121 118 113 108 105 106 106 102 105 110 111 110 110 106 101 102 101 100 103 101 94 92 92 89 90 89 91 93 98 102 99 95 92 90 88 89 93
358 355 337 343 17 75 245 69 90 333 56 84 261 153 236 317 126 183 208 179 141 153 83 87 82 74 80 95 115 112 40 338 198 155 226 179 154 159 165 170 169 166 160 154 151 149 147 142 142 143 139 134 132 131 127 126 125 132 130 121 126 128 127 122 115 112 108 108 113 115 114 113 116 112 104 105 101 97 95 95 95 94 94 92 92 91 94 97 102 106 104 100 95 92 90 90 94
354 350 343 334 13 48 67 46 92 70 83 148 257 245 210 131 174 203 214 160 148 158 131 95 79 70 79 71 57 81 49 310 194 116 106 156 158 166 168 169 169 167 162 156 153 152 148 143 143 145 143 137 134 134 132 131 130 140 141 128 130 131 130 130 123 116 112 113 116 117 114 113 117 109 104 110 112 109 103 100 100 98 98 95 94 95 99 101 106 109 106 102 96 95 93 90 91
356 3 2 18 27 33 59 42 124 117 123 189 248 262 214 168 185 191 198 171 162 163 145 81 53 359 83 100 74 84 165 292 161 146 156 169 169 167 168 171 170 168 163 157 156 155 149 145 147 147 144 137 133 132 133 134 136 142 141 134 135 134 131 131 126 119 116 116 117 121 120 117 114 105 103 113 116 114 109 110 107 100 100 99 100 101 102 105 107 110 109 103 100 100 98 92 90
3 29 24 65 80 33 88 68 105 108 170 185 175 254 235 189 184 175 189 231 232 222 203 101 89 306 38 112 141 143 181 152 163 177 167 177 173 164 169 172 171 168 164 159 157 157 151 149 152 150 142 135 130 130 133 134 135 136 137 136 135 133 130 129 127 122 120 120 117 120 122 118 111 108 113 114 114 112 109 112 109 105 104 104 103 102 102 106 109 113 112 105 103 104 103 97 92
4 50 42 60 91 124 102 73 109 194 218 172 160 241 216 192 196 177 174 230 248 231 197 112 141 148 44 347 142 160 172 125 165 183 171 171 168 164 169 171 172 168 164 159 159 160 154 155 156 151 142 136 135 134 135 136 137 136 135 133 131 132 132 130 128 126 124 123 122 122 120 119 116 119 124 120 115 114 113 109 106 107 106 105 104 103 105 107 110 114 115 111 110 108 108 107 102
358 23 37 57 56 24 92 119 188 234 234 175 187 202 181 194 198 163 162 177 156 356 62 130 144 113 81 301 61 174 235 187 169 177 173 164 162 164 169 172 172 167 164 159 161 162 158 158 156 152 144 141 142 136 136 139 138 137 136 132 128 130 134 132 129 130 127 126 129 132 129 127 127 126 127 128 122 117 116 112 111 111 110 111 108 108 108 108 110 115 121 121 119 117 114 113 111
16 17 35 75 39 22 85 121 224 220 229 217 224 194 179 191 175 153 167 158 151 348 73 188 141 91 308 339 104 271 303 216 180 174 171 160 160 165 170 173 172 168 165 162 164 164 160 158 156 154 149 149 147 136 139 143 143 141 140 139 134 135 139 137 135 134 133 133 130 134 139 135 133 129 128 135 136 129 123 121 120 120 122 121 115 113 112 110 113 120 127 129 126 122 118 114 112
35 36 58 76 62 25 46 331 274 229 265 251 216 221 195 173 160 148 141 68 167 144 154 234 287 92 176 19 261 286 332 172 170 168 168 163 163 165 168 171 171 170 167 166 167 165 162 159 157 156 154 155 150 143 145 146 148 148 146 145 142 143 148 151 146 136 138 142 136 136 141 139 138 134 134 139 140 136 130 129 128 125 124 121 118 115 114 117 120 124 126 127 124 119 115 111 108
32 23 104 70 73 34 1 298 268 230 268 263 212 225 195 160 162 147 130 139 125 117 231 253 55 105 139 84 255 303 7 160 160 163 168 168 166 165 165 164 167 169 170 169 169 167 164 162 160 158 157 156 155 153 151 147 150 152 149 147 150 154 153 161 162 142 139 145 147 150 147 145 144 141 142 143 137 131 129 131 131 126 124 123 123 120 119 121 122 122 122 123 119 113 109 105 106
22 355 95 73 69 78 265 241 277 258 279 312 284 243 191 157 141 104 99 136 78 117 207 75 84 122 105 43 260 309 180 162 162 164 169 172 170 169 166 162 164 169 171 170 169 169 166 166 164 160 159 156 156 154 149 150 155 153 151 150 158 163 151 158 163 151 144 143 150 156 157 154 151 149 148 144 135 132 133 136 136 130 127 126 126 124 124 122 120 120 119 119 118 112 109 107 110
110 337 70 85 137 183 196 178 249 266 311 327 254 256 171 146 143 152 142 146 131 144 212 195 141 139 91 340 274 316 172 167 167 167 171 174 174 173 171 168 167 168 171 171 171 171 171 171 168 164 163 161 155 150 150 154 160 156 156 160 164 162 152 153 157 154 149 147 154 156 158 160 159 157 154 148 140 140 138 137 139 133 131 131 129 127 126 123 119 118 117 118 120 121 119 117 115
132 140 99 150 181 164 151 153 220 244 321 263 214 262 129 152 192 176 150 130 136 143 239 202 144 109 103 236 276 188 187 177 167 167 172 175 176 177 175 174 172 171 173 174 173 173 175 174 172 170 168 167 160 157 158 159 163 162 161 170 171 160 155 155 154 155 155 159 167 166 161 163 165 162 158 154 149 149 142 139 141 139 139 139 133 130 129 127 124 122 120 119 120 125 130 133 128
137 150 125 159 137 137 153 148 197 152 244 247 224 262 122 187 207 165 137 118 186 194 228 174 140 107 108 201 282 230 201 182 169 169 173 174 176 177 177 177 176 177 177 178 177 176 177 177 176 175 173 172 168 167 170 167 167 168 168 172 175 169 161 157 158 161 167 173 177 176 171 169 172 169 165 163 163 163 155 155 154 149 149 145 140 137 136 133 131 129 124 122 119 121 127 135 132
143 130 95 120 88 154 181 176 161 155 220 227 191 166 125 253 163 150 155 138 216 250 135 126 144 136 158 175 215 216 194 180 172 173 173 174 176 177 179 179 180 180 179 180 179 178 179 181 180 181 182 178 176 176 179 177 174 176 178 176 175 178 173 168 170 173 178 182 182 183 180 176 176 175 174 176 181 184 175 171 165 158 157 153 148 144 143 141 139 136 131 127 119 118 123 129 126
121 104 67 111 156 229 200 186 132 140 232 220 210 135 113 286 148 155 236 148 145 330 83 176 179 57 167 179 224 199 183 177 173 175 173 172 173 175 178 178 180 179 179 181 181 179 181 183 184 189 191 187 185 184 188 185 183 185 186 186 184 185 186 186 185 184 186 189 190 190 188 185 183 181 180 183 187 191 189 182 176 171 165 158 154 152 151 151 149 147 142 137 126 123 127 130 127
74 89 76 161 181 208 191 181 164 166 227 228 249 187 129 242 293 165 307 95 125 84 27 256 275 1 180 215 276 178 174 174 171 170 168 166 167 169 174 177 178 178 180 184 183 180 183 187 190 194 196 197 195 191 195 193 192 193 191 193 194 196 198 200 195 191 191 193 197 197 196 196 193 192 189 189 191 193 193 189 185 178 171 165 162 162 162 162 161 160 159 154 143 136 138 138 133
71 103 137 214 184 200 186 180 192 172 186 199 217 186 141 156 203 171 71 54 72 93 27 327 328 342 235 251 195 162 167 168 166 165 163 163 164 165 171 177 178 181 183 185 185 183 185 190 194 199 200 201 201 201 201 197 198 199 198 199 200 203 203 202 198 195 195 194 198 200 200 201 201 203 201 201 202 200 198 196 193 186 180 176 174 174 173 174 174 174 176 176 167 154 155 155 149
103 118 158 227 195 206 201 175 183 174 167 177 188 175 161 170 169 142 146 192 98 132 297 341 343 346 7 155 150 157 162 163 165 166 165 166 169 170 172 177 180 184 186 187 188 187 188 191 194 200 203 203 204 207 206 202 203 203 204 204 203 205 204 203 202 201 200 198 200 200 201 204 207 210 213 214 215 212 206 205 200 195 191 187 186 185 185 187 187 189 188 189 188 179 175 180 183
142 121 175 241 214 213 231 187 189 204 159 149 165 168 179 190 156 146 166 173 209 190 209 269 254 251 153 147 151 156 161 162 167 168 170 174 175 176 176 180 183 186 189 191 190 190 191 192 195 198 202 206 208 210 210 207 207 208 208 206 206 206 206 207 207 206 205 205 206 204 205 208 211 215 218 220 221 218 213 210 205 201 198 196 195 193 195 198 200 203 202 205 212 214 205 208 221
140 136 186 233 203 166 220 206 203 204 160 149 147 122 160 231 169 182 148 140 266 244 218 198 201 195 171 167 161 161 164 167 172 173 174 178 179 181 183 185 186 188 191 193 194 195 195 195 198 198 199 205 209 211 212 212 212 213 211 209 209 207 207 210 210 211 210 211 210 209 210 211 213 216 220 223 223 219 216 213 209 206 203 200 201 200 202 206 210 213 216 222 227 233 228 222 230
148 206 195 202 171 153 209 203 211 188 142 126 126 138 164 187 165 170 159 168 231 230 217 207 193 172 169 170 167 167 171 174 179 181 181 183 184 186 187 187 188 191 193 196 200 200 199 198 200 200 199 204 210 213 214 215 216 217 216 213 214 212 210 211 212 214 213 212 210 209 210 210 211 212 215 218 220 219 216 213 210 209 206 204 204 205 208 213 219 223 227 233 235 240 232 220 225
173 231 220 194 172 200 204 156 238 171 123 136 148 164 132 106 259 194 175 206 229 226 220 204 185 172 168 163 165 171 178 183 187 189 189 189 189 189 189 189 191 194 196 200 202 202 202 201 203 203 202 205 209 213 215 216 217 219 220 219 220 220 217 214 214 215 213 210 208 208 207 206 205 204 206 209 212 216 216 214 212 212 209 207 208 210 214 219 226 231 236 238 239 244 232 219 217
155 210 268 203 174 216 215 127 165 118 125 174 153 124 138 157 202 158 199 236 246 266 269 173 163 162 161 160 171 181 184 190 193 195 195 195 196 195 194 193 195 197 199 202 203 203 203 202 204 206 205 207 209 211 213 215 217 219 221 223 225 226 225 221 217 215 212 210 209 208 206 205 205 205 208 207 210 215 217 218 216 215 213 211 214 216 220 224 230 236 241 242 245 248 235 224 220
183 207 264 199 181 211 325 114 129 106 110 140 103 129 209 188 160 143 231 248 255 271 54 127 142 149 163 173 181 186 189 195 198 199 200 202 202 200 199 199 197 198 201 205 205 204 203 201 203 206 207 208 209 209 212 214 216 219 220 223 226 226 228 228 222 216 213 212 211 210 210 210 211 213 213 212 215 219 221 223 221 218 216 217 220 223 226 231 235 241 245 247 249 246 235 230 229
209 196 173 154 242 155 54 145 133 86 103 73 84 268 275 216 154 260 245 241 243 107 103 131 141 157 180 185 187 188 192 199 200 202 203 205 205 204 204 203 202 202 204 207 208 208 205 202 203 206 208 209 210 210 212 215 215 218 221 224 226 227 230 230 225 220 216 214 213 212 214 216 218 220 221 219 221 226 228 230 228 224 222 223 226 229 233 237 241 245 248 251 250 242 236 235 236
191 175 159 161 263 289 103 213 299 14 263 167 155 259 289 314 206 248 260 242 142 103 119 155 156 176 190 191 197 195 196 202 201 200 201 205 206 207 207 205 206 207 208 208 210 212 209 205 206 208 210 211 212 213 215 217 218 221 223 225 227 228 230 229 226 224 221 218 215 214 217 220 224 229 230 228 228 233 237 239 236 233 229 228 231 235 238 242 246 248 250 253 248 240 239 239 241
141 147 151 169 333 303 158 235 282 328 267 178 155 261 283 315 214 228 256 252 147 141 151 177 181 191 197 196 202 200 206 207 201 198 200 205 206 207 209 208 208 209 210 210 212 214 212 210 209 211 212 213 215 217 218 219 221 224 225 227 228 230 231 230 228 226 223 220 217 216 218 222 227 233 235 233 233 238 245 247 244 240 238 236 237 240 242 245 248 250 251 249 242 239 241 242 245
113 143 166 215 354 297 228 209 213 157 203 181 133 323 274 231 217 229 235 170 141 155 168 190 198 202 201 201 206 207 216 211 201 204 208 209 210 209 212 212 211 212 213 213 213 214 215 214 213 214 215 216 218 220 221 222 224 226 226 229 230 231 231 231 230 227 226 223 219 219 220 224 229 234 236 233 236 242 249 252 248 244 243 243 243 244 245 246 249 250 249 244 239 241 245 248 251
116 142 167 173 345 281 231 184 145 148 185 180 137 285 256 231 231 232 217 163 138 158 193 203 204 209 206 203 210 215 218 212 207 212 213 212 212 213 215 215 214 215 216 215 216 216 216 216 216 216 216 218 220 222 223 225 226 227 228 231 232 233 233 233 232 231 232 228 225 224 223 226 230 235 236 235 238 243 248 251 249 246 244 246 247 248 249 249 249 249 247 242 242 246 252 257 258
122 110 79 149 201 263 253 185 153 168 209 149 135 251 255 246 247 237 214 177 167 187 206 208 208 211 211 207 211 219 218 215 216 218 217 216 215 216 217 218 216 217 218 217 218 219 219 219 217 217 218 220 221 222 224 226 228 229 230 233 234 235 236 235 235 234 235 235 234 230 228 230 232 236 238 239 241 244 247 247 247 246 245 247 247 249 250 249 247 246 245 243 246 251 256 262 263
142 160 185 184 209 264 298 213 171 184 216 136 146 240 268 263 255 257 222 181 184 206 211 207 213 210 210 213 212 220 224 220 224 227 225 222 219 219 219 219 218 217 218 219 220 221 221 221 221 221 221 222 223 224 226 228 231 231 232 235 236 238 238 238 238 237 237 238 240 237 234 233 235 238 239 241 243 244 245 244 243 244 245 247 247 247 248 245 243 244 244 244 248 254 258 265 269
199 181 168 197 211 239 307 277 199 182 157 169 201 238 283 283 262 326 17 184 185 214 226 219 220 220 216 215 216 220 226 224 227 231 230 226 223 222 222 221 220 219 220 221 221 221 222 223 223 223 224 224 225 226 227 230 231 233 234 236 239 240 240 240 240 240 239 240 242 242 238 236 237 238 239 240 243 244 245 244 243 243 245 248 247 245 244 242 241 243 245 245 249 254 259 266 271
186 161 201 228 212 192 218 276 240 174 161 199 219 241 249 247 265 338 50 172 178 213 234 234 227 230 226 220 224 224 224 224 225 227 228 226 224 224 224 223 222 220 221 222 223 223 224 225 224 224 225 226 227 227 228 230 232 233 235 238 240 241 241 241 241 241 241 242 245 245 242 239 238 238 239 240 243 245 246 245 245 245 246 248 247 245 243 242 242 244 246 248 249 253 257 263 271
165 175 213 236 212 200 211 242 218 167 182 210 212 245 249 250 269 274 245 161 174 219 228 236 233 231 235 228 227 227 225 228 229 226 225 225 225 225 225 225 224 222 221 223 224 225 226 226 226 226 226 226 228 229 230 231 232 233 235 237 240 240 239 240 241 241 242 244 246 247 245 243 240 239 239 240 243 246 246 245 244 246 246 247 247 246 244 242 242 243 246 249 249 252 255 260 269
173 184 199 199 196 224 223 236 233 168 170 215 213 234 246 247 257 259 252 174 184 239 239 242 241 233 236 232 232 231 226 230 233 230 227 224 224 225 225 225 224 223 223 223 225 226 226 226 226 225 226 226 227 228 229 229 229 230 232 235 237 237 238 238 240 242 243 245 245 246 245 244 243 242 241 241 242 245 245 244 243 245 246 246 246 245 244 244 245 245 247 250 251 252 253 256 264
175 181 198 201 200 240 233 223 252 169 157 222 219 233 248 248 250 251 258 254 238 252 248 242 237 229 230 228 233 232 228 234 237 235 231 226 225 225 225 224 224 224 223 223 224 225 226 225 225 225 226 226 226 226 226 226 226 226 228 231 234 236 237 238 240 242 243 244 244 244 244 243 244 244 243 242 243 245 245 244 244 245 245 246 247 247 247 248 249 249 250 252 252 252 252 254 260
172 181 196 208 204 238 242 221 260 184 183 245 229 241 253 251 255 257 264 275 257 246 243 242 233 227 227 226 232 233 235 241 241 237 232 225 223 223 223 222 221 222 222 222 223 225 225 225 226 226 226 225 226 226 227 228 228 228 229 232 235 237 237 238 240 242 242 243 243 243 242 242 243 244 244 244 244 246 246 245 245 245 245 247 248 249 250 250 250 251 250 250 251 251 252 253 257
178 182 184 207 196 226 276 276 307 181 196 259 250 248 258 254 257 262 253 247 249 241 237 239 232 230 229 224 228 232 238 239 229 232 231 223 220 220 219 219 221 222 222 222 223 225 224 225 226 226 226 226 227 227 228 229 231 233 235 237 238 239 240 241 243 244 245 245 245 244 244 243 244 244 245 246 246 247 247 247 247 247 247 248 249 250 250 249 250 250 249 249 249 249 250 251 252
187 180 177 207 173 152 241 282 330 192 187 228 266 275 271 258 258 261 247 239 248 246 238 239 233 231 232 228 224 222 228 232 226 228 230 223 219 217 215 217 220 220 221 222 222 222 223 224 225 225 225 226 228 228 229 231 233 235 237 239 241 242 244 245 246 247 246 247 248 247 247 246 246 246 245 246 248 249 249 250 250 249 249 249 249 250 250 250 250 251 250 249 247 246 247 249 250
204 193 187 200 172 165 197 181 66 347 329 5 19 319 285 249 243 252 250 249 254 246 243 250 244 236 239 240 232 222 222 224 221 222 226 220 215 215 216 218 218 217 219 222 222 221 222 224 225 224 224 226 228 229 230 230 230 231 232 234 236 239 242 242 242 244 244 245 247 248 249 249 249 249 248 247 248 250 251 252 253 252 252 251 250 251 251 252 253 252 251 249 247 245 246 249 250
217 206 192 193 180 170 148 126 91 37 312 313 37 297 283 283 255 252 266 298 262 242 234 247 247 239 236 239 238 231 227 225 221 221 220 216 214 215 217 218 217 216 220 223 223 224 224 224 225 224 224 225 227 228 229 228 227 227 226 225 226 228 232 234 236 239 241 243 246 248 249 251 251 251 251 250 250 251 253 254 255 255 255 254 253 253 253 253 253 254 253 251 250 249 248 247 248
221 193 178 180 164 157 152 147 122 132 239 299 63 185 266 310 285 255 259 263 260 255 238 244 248 242 230 230 235 232 228 228 225 225 221 218 215 212 216 217 216 218 223 224 224 224 225 225 225 224 223 224 225 226 226 225 225 225 225 225 226 226 230 235 237 239 241 244 247 249 250 251 252 252 252 252 252 252 253 254 255 257 257 256 256 256 255 255 255 256 255 254 254 254 249 244 246
229 178 158 151 142 159 173 160 149 182 200 334 15 131 257 290 271 260 268 266 269 264 249 247 242 237 233 229 230 229 227 223 221 223 220 218 215 211 215 217 217 221 225 225 223 224 225 225 225 224 224 223 224 224 225 225 224 224 224 226 228 229 233 238 241 242 243 245 248 250 251 252 253 253 254 254 254 254 254 254 255 255 256 256 256 256 257 258 258 257 257 257 256 255 250 246 247
268 140 131 129 134 150 167 154 139 62 110 272 304 96 236 274 270 288 328 264 264 260 250 249 239 231 230 230 232 231 229 223 219 222 220 217 215 214 218 220 220 222 224 224 224 224 224 224 223 223 224 224 224 224 224 225 226 225 225 225 228 232 235 239 242 243 245 246 247 249 251 252 253 254 255 255 255 255 255 255 255 255 255 256 256 257 258 258 257 257 257 257 256 255 253 250 248
220 111 93 84 85 92 96 136 117 51 318 224 224 148 190 271 256 234 71 237 250 256 251 246 239 231 226 229 236 237 236 230 224 224 223 219 217 217 219 221 222 223 223 224 224 224 223 222 221 221 224 224 225 225 224 225 225 225 225 226 229 234 235 238 240 242 244 244 246 248 249 251 253 254 255 256 256 256 257 257 256 256 256 256 256 257 257 256 256 257 257 258 257 256 254 252 249
136 103 82 75 56 55 57 60 87 92 259 222 196 170 135 288 262 203 201 229 235 249 260 259 255 249 236 230 235 237 238 235 228 227 228 226 223 221 220 221 222 223 223 223 223 223 222 221 220 221 224 224 225 226 225 225 225 224 226 228 231 235 235 235 237 240 241 242 244 246 247 250 252 254 255 256 257 258 258 258 258 257 257 256 255 256 256 255 256 256 257 258 257 255 254 253 252
131 98 109 102 54 28 38 9 65 197 242 215 184 162 141 235 257 231 239 258 244 231 249 265 266 264 254 240 237 235 235 239 234 228 230 228 226 222 218 220 222 222 221 221 221 222 222 221 220 221 223 224 224 225 225 225 225 225 228 229 232 235 235 235 237 239 240 240 242 245 247 249 251 253 255 255 256 257 259 259 258 257 256 254 254 255 255 255 254 255 255 255 254 253 253 252 251
141 115 144 140 133 187 185 212 194 205 258 305 171 144 160 238 254 267 264 265 253 233 231 246 253 261 269 265 257 248 239 244 239 228 225 221 220 217 213 216 218 218 219 220 221 221 221 221 220 221 223 224 223 223 225 225 225 227 229 230 233 235 235 236 238 241 241 242 243 244 245 247 250 251 252 253 255 257 259 260 258 257 256 255 255 255 255 255 255 254 254 252 250 251 254 253 250
173 160 170 170 168 190 196 193 156 181 342 9 176 133 278 265 270 256 252 258 262 259 241 234 236 246 261 269 274 274 263 253 243 232 225 216 215 214 212 213 214 215 217 219 220 220 220 220 219 221 225 225 222 223 225 225 227 230 230 232 233 234 235 237 239 241 243 244 245 245 247 249 251 253 254 257 260 262 263 264 264 262 260 259 258 258 257 257 255 254 254 252 252 256 260 257 253
188 175 166 179 182 192 191 176 163 157 74 4 257 214 201 214 260 251 243 256 269 274 262 247 246 246 255 271 277 274 266 257 244 234 230 222 220 217 215 216 215 216 218 218 219 219 218 219 219 222 225 224 223 223 224 225 228 230 231 232 234 234 236 238 241 243 244 246 247 248 251 252 253 256 258 262 263 264 265 267 268 268 266 265 262 261 261 259 257 255 254 255 256 260 261 258 255
199 151 151 216 197 149 114 133 157 127 104 245 212 237 217 215 280 282 271 264 256 255 262 268 266 261 268 275 267 258 255 257 244 232 235 232 227 223 221 221 221 221 221 219 220 219 218 220 220 223 226 226 224 224 224 226 229 230 231 233 234 235 237 239 241 244 245 247 249 251 253 254 256 259 261 262 263 263 265 265 266 268 269 268 266 264 263 262 260 257 256 257 258 259 257 253 253
167 163 183 209 145 118 106 134 44 81 181 228 209 252 287 312 286 280 278 274 267 255 253 258 261 267 275 266 256 250 247 251 244 230 236 236 229 226 223 222 222 222 222 222 223 223 222 222 222 223 226 226 225 226 226 228 230 230 232 234 235 236 237 239 242 245 247 249 251 252 254 256 258 260 261 263 265 265 265 264 264 265 266 267 266 265 263 262 261 258 259 261 260 258 253 248 254
146 192 188 136 86 94 104 139 29 62 216 261 250 240 267 288 268 293 316 284 275 271 264 264 264 263 264 258 251 248 245 254 263 251 248 246 236 231 226 224 224 223 224 225 227 227 226 225 225 225 227 227 228 228 229 230 231 231 232 234 235 236 238 241 244 247 249 249 250 251 254 256 258 260 263 265 265 265 265 264 264 264 264 264 264 264 263 262 260 258 259 260 260 259 254 253 263
147 175 170 138 166 205 149 162 174 179 222 276 290 262 231 212 231 275 278 260 268 286 295 282 262 243 241 251 251 251 252 262 270 261 255 247 235 233 229 228 228 226 227 229 229 228 227 227 228 229 231 232 232 231 231 232 232 233 235 236 237 239 242 245 247 248 248 248 250 252 253 256 259 262 264 264 265 264 264 264 263 263 263 263 264 264 264 264 261 260 260 259 258 257 255 256 264
69 127 165 169 183 198 186 167 158 180 208 242 300 316 241 223 218 231 245 246 244 264 283 272 257 244 238 242 242 243 244 245 249 249 248 241 233 233 232 233 234 231 229 229 230 230 229 230 230 230 232 233 233 233 232 233 233 234 236 238 241 243 244 246 246 246 247 248 250 252 255 258 260 261 262 262 262 262 262 262 263 263 264 264 264 263 263 264 262 260 260 260 260 258 255 257 264
150 165 183 188 171 140 179 177 116 144 178 197 223 264 254 242 217 216 234 245 238 238 251 253 253 252 246 243 238 234 233 239 241 239 242 245 245 241 234 235 235 232 229 225 226 228 228 228 228 229 230 230 231 232 232 233 234 235 237 238 240 241 242 243 244 245 247 249 251 253 255 257 257 258 258 258 258 258 259 261 262 264 265 265 265 266 266 267 265 264 263 265 265 262 260 263 268
178 184 187 186 176 133 178 218 184 132 171 170 175 248 264 243 211 216 225 238 241 235 234 244 252 249 248 249 241 229 225 233 236 238 246 259 266 254 230 220 217 217 218 215 217 221 221 221 222 224 225 227 229 230 231 232 232 232 234 235 237 238 239 241 242 243 245 247 249 250 251 251 252 253 253 253 254 254 256 259 261 262 262 263 264 263 261 262 264 263 262 263 263 259 259 264 267